Wind_Speed
21 23 24 24 25 25 26 27 27 28 28 28 28 29 28 28 27 26 28 28 27 21 15 10 4 8 10 11 10 11 11 12 16 21 16 10 16 17 15 13 13 14 12 10 12 13 11 7 7 8 3 3 1 0 2 2 1 4 3 3 1 1 1 2 2 2 4 3 1 1 3 7 2 2 3 9 15 12 12 12 10 11 11 12 14 17 19 20
20 22 23 23 24 25 25 26 26 27 27 27 28 28 28 28 26 25 27 28 26 21 15 11 5 8 10 10 8 8 7 5 11 16 13 15 19 16 13 12 12 13 13 12 14 14 9 6 10 11 5 1 2 1 3 2 2 3 2 2 2 4 2 1 4 3 4 5 1 1 3 6 3 2 2 6 9 10 12 9 8 11 9 12 15 17 19 19
20 21 22 22 23 24 24 25 25 26 26 26 27 28 28 28 26 25 25 27 25 20 15 12 6 6 10 10 8 4 2 3 6 7 12 18 16 13 12 11 11 12 13 13 14 13 10 10 12 9 3 2 2 1 2 2 2 2 3 2 5 4 1 2 6 4 4 6 3 3 3 4 1 1 3 7 8 7 9 6 6 9 7 7 9 14 17 18
19 20 21 22 22 23 23 24 24 24 25 25 26 27 28 27 26 25 24 25 24 20 15 12 9 2 9 10 6 1 3 5 4 5 12 16 13 11 11 10 12 11 12 14 13 13 11 13 12 5 1 3 3 2 2 1 2 1 3 2 7 1 2 3 5 6 4 6 4 2 4 4 2 3 4 8 8 5 4 5 8 10 9 8 6 10 14 16
18 19 20 21 22 22 23 23 23 23 24 24 25 26 26 27 27 25 24 23 22 20 15 11 9 4 4 9 7 1 4 4 3 7 12 13 11 10 10 10 11 11 13 15 13 14 12 7 5 2 2 3 4 4 1 2 2 1 1 4 4 2 1 2 4 5 4 6 5 4 3 2 1 5 4 7 7 3 4 6 10 11 10 9 8 9 11 12
18 19 19 20 21 22 22 22 22 23 23 23 24 24 25 26 26 26 24 22 20 19 17 11 7 5 2 5 7 2 2 1 3 9 12 11 9 9 10 11 10 11 12 15 16 15 12 7 5 4 3 2 3 1 1 2 3 1 4 2 2 2 0 2 3 3 5 7 4 2 0 1 6 6 4 8 7 6 7 9 11 11 12 13 11 10 9 8
17 18 19 20 20 21 22 21 22 22 22 22 22 23 24 24 26 25 23 22 19 17 17 11 5 3 5 3 2 1 4 2 5 9 11 9 7 9 11 11 11 10 11 15 16 11 7 8 6 2 3 3 2 1 1 2 3 2 3 3 3 3 3 2 3 3 6 6 1 0 1 3 9 6 4 8 8 8 9 10 13 14 15 15 12 9 8 8
17 18 18 19 19 20 21 21 21 21 21 21 21 22 23 23 24 24 22 21 18 16 16 12 5 1 2 3 1 3 3 1 5 8 9 6 6 10 9 9 11 10 12 14 13 7 3 6 5 2 3 1 2 3 2 4 3 2 3 3 2 4 4 2 5 4 4 2 2 4 2 3 8 8 6 7 8 8 10 11 12 13 12 12 9 7 7 8
16 17 18 18 19 20 20 21 21 21 21 21 22 21 22 23 23 23 21 20 18 16 14 11 7 2 3 2 4 2 2 1 5 8 8 5 6 9 8 9 11 10 11 11 13 10 4 3 3 2 1 2 2 4 2 4 2 2 1 2 3 4 5 1 3 2 1 1 4 6 5 3 10 9 4 5 9 9 10 10 9 10 9 8 7 6 7 7
16 17 18 18 19 19 20 21 21 21 21 21 22 21 22 22 22 22 20 19 17 16 14 9 5 3 2 2 6 2 2 2 6 8 7 7 5 6 7 10 11 10 9 9 12 10 4 1 2 1 2 2 2 4 0 2 2 1 2 3 4 5 5 1 2 1 2 1 4 4 2 4 8 6 3 6 8 9 10 9 8 9 8 7 6 6 7 7
15 16 17 18 19 19 20 20 21 21 21 22 22 22 22 22 22 21 19 18 15 16 14 6 3 3 2 3 5 1 2 3 6 8 9 9 7 6 7 9 9 9 8 7 8 7 3 1 2 1 1 0 3 4 2 1 1 1 4 5 7 6 6 3 3 2 2 1 3 6 1 4 6 1 7 10 8 10 11 10 8 9 7 7 6 5 5 6
15 15 16 18 18 19 20 20 21 21 21 22 22 22 22 23 22 20 19 16 14 15 11 4 3 3 2 4 4 3 2 3 6 10 10 9 8 7 7 7 9 9 6 4 4 4 4 3 4 1 1 1 2 3 0 1 1 1 3 3 7 5 4 5 4 2 3 2 2 5 2 3 7 4 10 12 10 9 10 10 8 8 7 6 6 4 4 6
14 15 16 17 17 19 19 20 21 21 22 22 23 23 22 23 21 19 18 14 12 11 7 4 3 1 2 2 3 5 4 4 6 9 10 9 8 6 6 7 8 9 5 3 2 3 3 3 3 2 2 1 1 2 0 1 1 0 2 2 2 6 4 6 4 2 4 2 1 4 2 5 5 7 12 11 11 11 10 9 7 7 6 5 5 5 4 6
13 14 15 16 17 18 18 20 21 21 22 22 23 23 23 23 20 18 15 12 11 8 4 3 1 0 2 1 3 5 3 3 5 9 10 10 7 4 6 7 6 6 4 3 2 2 2 2 3 0 2 2 2 3 3 3 2 1 0 1 2 2 4 7 4 4 4 3 3 6 4 6 4 10 13 11 11 13 10 8 7 6 5 5 5 5 4 5
13 13 15 15 17 17 18 20 20 22 22 22 24 23 24 22 17 16 11 10 11 5 1 2 1 1 2 1 3 5 2 2 3 8 9 11 9 4 6 7 4 3 3 3 2 2 1 2 2 0 3 2 1 3 4 4 3 1 0 3 2 3 4 7 3 6 6 3 4 5 4 5 4 10 11 9 10 11 10 8 7 7 6 5 5 5 4 4
12 13 14 15 16 17 18 19 20 22 22 23 24 22 24 19 15 15 7 9 12 2 1 1 0 1 2 0 3 5 2 2 2 6 6 10 9 5 8 7 1 2 2 1 2 2 1 2 1 1 1 2 3 3 3 4 4 3 1 3 3 1 3 3 4 4 6 2 2 4 4 3 3 8 7 7 9 10 10 8 8 7 6 6 4 4 4 3
12 13 14 14 15 16 17 19 20 22 22 24 23 24 23 14 14 12 3 10 13 2 2 1 0 1 1 1 3 2 1 1 4 4 4 9 8 7 8 4 2 3 2 1 2 2 1 1 1 0 2 2 2 4 5 4 4 4 2 2 4 3 3 2 4 4 3 3 4 5 5 5 3 9 9 7 9 10 10 9 8 7 6 5 4 4 4 4
11 12 13 14 15 15 16 18 20 21 22 23 23 25 21 12 12 6 4 14 12 3 1 2 2 2 1 0 1 2 2 3 6 3 2 8 8 7 5 1 3 4 3 2 2 2 1 1 1 2 4 4 3 5 3 3 3 3 2 2 4 4 4 4 3 3 4 5 6 5 6 7 4 8 8 7 9 9 9 8 7 7 6 5 5 5 4 4
11 12 12 13 14 14 15 17 19 21 22 22 22 21 14 9 7 2 4 16 7 2 2 1 1 0 2 2 2 2 4 5 5 1 2 7 7 7 3 0 3 4 3 3 4 2 1 2 4 3 3 2 2 4 3 6 6 5 5 4 4 5 6 6 5 5 5 5 6 7 7 6 5 9 8 7 8 8 8 7 6 6 6 5 5 5 5 4
10 11 11 12 13 13 14 16 17 20 20 21 22 16 7 7 5 2 8 11 1 2 3 2 2 2 3 1 1 4 6 3 1 1 2 8 8 4 0 2 5 5 3 3 6 3 3 4 2 2 4 3 2 3 5 6 4 3 3 3 5 6 6 7 6 5 3 3 6 7 7 7 6 10 10 8 7 8 9 8 8 7 6 6 6 5 5 5
9 10 10 11 11 12 13 14 16 17 16 17 17 10 2 3 3 3 6 6 7 6 4 1 1 3 4 2 1 3 1 0 2 1 3 8 5 1 0 2 5 4 3 3 4 3 5 3 4 6 7 6 4 5 4 3 3 2 3 4 5 5 7 8 6 4 2 1 6 5 6 8 6 9 9 8 9 11 11 11 9 8 7 6 6 6 5 4
9 10 10 10 10 10 11 13 15 14 13 14 13 9 5 3 2 2 1 4 9 6 2 1 1 3 4 2 1 2 3 2 3 3 4 7 3 1 2 3 5 3 4 3 3 5 5 3 8 7 6 3 3 4 3 3 3 3 3 2 4 4 5 8 5 2 2 1 5 5 7 8 7 9 9 12 12 10 10 11 10 9 8 6 6 6 5 3
8 9 9 9 9 9 10 11 12 11 11 12 11 7 4 3 4 3 2 2 7 4 1 1 1 2 2 1 2 2 3 1 1 3 6 6 2 1 1 4 3 2 3 4 3 2 4 5 6 5 5 2 3 2 3 3 3 4 4 2 5 4 2 5 4 2 3 2 4 6 9 8 7 7 7 10 9 6 6 8 8 8 8 8 7 6 5 6
8 8 8 8 8 7 8 8 7 8 9 9 10 6 3 3 4 3 1 1 5 4 1 2 2 2 2 1 1 3 2 1 2 2 4 3 1 1 2 2 2 1 1 1 5 3 7 7 3 4 3 3 1 2 2 3 3 5 6 5 6 4 4 6 3 5 5 4 4 6 9 7 7 8 6 5 4 6 7 8 7 7 7 7 6 6 6 6
8 7 7 8 8 6 7 6 3 5 5 3 7 6 3 4 5 3 1 1 3 5 1 1 1 1 2 2 2 2 1 1 1 2 4 3 2 0 1 2 2 0 2 0 1 3 7 5 3 4 1 3 2 3 3 5 3 5 5 7 6 4 4 5 4 6 5 5 5 1 5 7 4 8 8 4 5 7 6 8 9 7 7 7 6 6 6 5
8 7 6 7 7 5 4 2 1 4 3 1 4 4 3 4 6 3 2 3 3 4 1 1 0 2 3 2 1 1 1 3 1 0 2 3 1 1 1 0 1 1 2 1 2 3 3 2 4 4 3 2 1 4 4 5 3 4 5 4 4 3 2 5 3 3 2 4 3 3 1 7 2 5 9 7 9 10 7 8 9 8 7 7 6 6 6 5
9 7 6 6 6 5 2 2 0 2 1 1 3 3 1 4 5 3 2 4 4 3 3 0 1 2 3 1 1 3 1 2 1 2 1 1 2 1 1 1 1 1 1 2 3 3 2 2 4 4 4 1 3 4 4 6 5 4 4 4 3 0 4 5 3 3 4 2 4 2 3 7 7 5 10 11 11 10 9 9 9 8 8 7 7 6 6 6
9 7 5 5 4 2 1 3 2 2 2 1 2 1 2 5 5 3 4 3 3 1 2 1 0 2 2 1 2 2 2 1 2 1 1 0 2 2 2 2 3 3 1 4 2 5 2 1 2 3 3 2 5 5 5 7 3 6 5 3 2 4 6 5 4 6 3 3 6 7 5 5 9 4 6 10 10 11 12 13 11 10 9 8 7 6 6 5
8 9 5 5 3 2 2 3 4 3 2 0 1 2 4 5 3 3 4 0 2 1 1 0 1 0 1 2 1 0 1 0 1 2 2 1 1 2 1 2 5 4 2 4 6 7 2 3 5 6 4 5 6 5 6 7 3 5 3 2 3 4 6 4 4 5 2 1 9 7 7 5 7 2 5 6 8 12 13 11 11 10 9 8 7 6 6 5
8 9 5 5 3 3 2 3 4 4 3 1 2 4 4 3 3 5 2 3 2 0 0 1 1 1 3 2 2 0 2 2 1 1 2 1 2 3 1 1 3 2 3 2 4 6 3 1 2 4 4 5 5 3 3 4 4 1 2 3 4 4 3 1 2 0 3 4 9 7 10 8 6 2 7 7 7 11 11 9 10 10 9 8 7 6 6 5
7 9 6 5 3 3 3 3 5 4 2 3 4 4 2 1 4 4 3 5 2 1 1 1 1 1 4 2 1 1 1 2 0 2 1 0 2 4 2 2 3 3 3 4 3 5 4 1 2 1 2 4 5 1 1 1 1 3 3 3 4 5 2 4 3 3 1 6 6 5 8 8 7 5 6 7 6 7 12 13 14 13 10 8 6 6 6 5
8 9 7 4 4 4 5 4 4 3 3 5 4 3 4 2 1 3 4 3 2 2 2 2 2 2 3 2 0 2 1 2 1 3 2 1 0 1 1 3 1 3 4 2 3 6 4 5 3 1 1 4 6 1 3 4 4 4 4 4 3 5 4 3 2 1 3 7 4 1 2 5 10 7 6 10 8 7 12 14 15 14 10 8 7 6 5 5
9 9 9 7 5 5 6 6 4 3 4 6 3 3 6 3 4 5 5 3 2 2 2 2 1 3 4 2 2 3 1 3 3 2 2 2 1 3 3 4 5 1 4 2 2 4 4 5 2 0 3 3 7 4 2 1 2 4 3 3 2 1 4 5 4 3 5 6 3 1 2 3 7 5 5 10 7 6 9 10 12 12 10 8 7 6 5 5
11 10 9 10 8 8 7 7 5 4 6 5 4 4 5 4 5 5 5 5 3 0 2 2 3 3 2 1 4 3 1 4 2 2 1 2 1 2 4 4 4 4 2 1 2 2 2 6 3 4 2 3 6 6 5 4 4 4 4 5 4 3 2 5 4 4 7 6 4 2 1 4 3 4 5 4 5 5 7 9 9 9 8 7 6 6 5 5
14 12 10 12 12 10 8 8 6 7 8 5 4 3 5 5 4 3 5 5 2 1 1 1 4 3 2 2 3 2 2 4 0 4 1 2 3 4 3 4 5 5 4 1 2 2 3 6 5 2 1 4 5 4 4 6 2 3 2 4 2 4 4 4 2 3 3 6 5 3 3 5 3 2 4 4 6 7 8 8 9 8 7 7 6 6 6 5
14 12 9 13 15 11 9 8 8 10 8 5 4 5 6 5 4 4 4 3 3 4 2 2 3 3 3 3 3 3 1 1 0 2 2 3 4 5 5 4 5 7 6 4 2 2 2 5 2 1 2 3 4 2 2 3 1 1 2 2 5 4 4 2 3 0 2 5 6 3 4 5 1 1 1 4 6 7 7 7 8 8 7 7 6 5 6 5
13 9 7 11 14 12 9 7 10 11 6 5 5 7 5 5 6 5 3 2 3 5 5 1 2 4 4 2 3 4 1 1 1 1 2 3 3 5 5 4 4 9 9 5 2 3 2 4 3 3 2 4 2 1 1 1 3 4 3 4 3 1 2 2 1 2 2 4 6 2 6 8 1 2 3 4 6 7 8 7 8 7 7 7 6 6 5 3
11 5 6 12 15 13 7 7 11 9 4 4 7 8 5 5 6 6 4 4 2 3 4 4 4 4 5 4 4 4 4 2 2 2 2 3 4 4 6 3 2 4 6 5 1 2 1 3 5 2 2 3 2 3 2 3 2 4 3 2 1 0 2 2 2 2 2 6 7 3 6 8 5 5 5 8 11 11 9 7 8 8 7 7 6 6 4 1
7 1 4 11 16 16 10 9 10 5 3 5 8 7 5 7 8 7 5 4 3 3 4 6 5 3 4 6 4 3 5 5 4 3 3 3 4 4 6 5 2 1 2 6 4 2 2 1 4 1 1 2 2 2 2 2 1 3 1 2 1 2 3 2 2 2 2 6 8 5 6 4 5 7 11 14 14 13 11 9 8 8 7 7 6 5 4 3
5 1 2 7 15 17 14 10 6 4 4 7 7 5 5 6 7 8 8 6 4 4 5 5 6 5 5 5 5 4 5 5 6 4 3 4 4 5 6 5 5 3 2 4 3 1 2 2 3 2 2 1 2 4 6 7 4 3 2 2 2 2 1 1 2 3 3 6 6 6 10 5 3 4 10 14 13 13 12 9 8 7 7 7 6 6 5 5
4 3 3 9 16 17 16 8 4 4 5 6 5 6 7 5 4 7 11 11 7 4 4 6 7 7 5 5 5 4 4 4 6 5 5 5 4 5 6 6 9 8 3 4 2 3 2 3 3 2 1 3 6 6 7 8 7 6 6 6 6 5 2 3 5 2 3 6 4 5 13 9 2 3 6 9 10 11 11 9 8 8 9 8 7 7 6 5
5 4 4 13 19 19 14 5 3 4 4 6 6 6 5 4 4 7 7 7 8 7 4 5 7 7 6 6 5 5 5 4 6 6 5 7 8 7 6 7 10 10 7 3 3 4 3 2 3 5 6 6 6 3 2 4 4 3 4 5 6 5 5 6 7 3 3 4 2 4 13 9 2 5 6 7 9 9 9 9 8 7 8 8 7 7 6 4
5 4 6 15 20 18 10 4 3 5 5 4 5 6 5 4 5 6 6 6 6 6 5 5 5 7 8 6 5 5 5 5 7 9 6 6 8 6 4 8 11 9 6 3 2 2 1 2 3 6 6 4 2 2 4 3 3 1 4 5 6 7 8 8 6 1 1 5 3 4 11 8 1 2 5 6 7 8 8 8 8 8 7 6 7 6 5 4
3 3 3 12 20 16 8 5 6 8 7 5 6 8 7 6 8 8 7 8 6 5 7 6 5 8 8 5 6 7 7 6 7 9 7 6 5 2 1 8 11 8 5 4 4 4 3 2 3 2 6 6 3 2 3 1 2 3 5 5 8 10 7 3 2 1 4 11 10 7 12 9 2 0 3 7 7 7 7 7 8 8 6 6 6 5 5 4
3 3 1 9 17 12 5 3 4 6 9 8 9 11 10 8 8 10 10 9 6 5 6 6 6 7 5 4 5 6 9 10 8 5 5 5 4 2 1 4 7 6 4 2 3 5 4 3 4 4 6 9 9 7 4 2 3 3 3 6 10 11 10 5 3 4 8 13 11 10 13 11 3 2 2 5 7 7 6 6 6 6 6 6 6 5 5 5
3 4 2 5 8 7 4 1 2 3 6 8 8 12 15 11 6 9 12 11 7 7 7 5 5 6 5 5 6 8 11 13 10 4 3 4 4 2 1 1 0 3 3 2 2 4 2 2 6 9 10 12 14 11 1 4 3 5 5 9 11 11 14 11 6 8 8 5 9 15 15 15 13 7 6 6 7 7 6 6 6 6 6 7 6 6 5 4
4 4 5 5 4 6 5 3 4 5 5 9 7 6 12 15 10 7 10 9 8 10 9 5 6 8 7 7 8 11 15 13 9 8 6 5 3 2 1 1 2 2 3 3 1 4 3 4 9 13 16 19 20 14 2 4 7 12 10 10 11 11 15 15 14 15 7 1 14 21 12 14 20 13 10 11 9 8 7 7 8 7 7 6 5 4 1 1
6 3 5 7 4 6 9 8 11 13 12 11 7 6 10 13 12 9 8 7 8 11 9 6 11 14 13 12 10 11 13 9 7 11 11 7 5 1 1 0 2 3 3 2 1 3 4 7 11 11 16 21 19 13 7 6 10 14 15 12 11 14 18 20 21 21 12 9 20 22 12 17 20 11 11 12 8 8 7 7 7 7 7 6 4 3 2 3
7 2 2 8 6 6 11 14 15 17 19 13 8 13 15 13 13 10 6 5 7 12 13 12 16 16 16 16 14 14 14 8 7 12 11 9 9 5 2 2 3 3 4 4 1 2 3 6 9 8 12 19 17 10 9 10 12 18 20 15 14 19 21 20 20 21 18 20 25 23 22 27 22 12 13 11 6 7 5 6 6 7 7 5 5 3 0 2
9 4 4 6 7 6 6 10 12 13 16 14 13 15 13 13 17 12 7 9 12 11 14 19 20 17 20 23 20 19 18 12 12 15 10 9 9 6 4 5 4 3 4 5 2 3 4 3 2 3 6 15 14 8 8 10 12 20 22 16 16 20 21 20 20 19 18 21 26 24 23 26 21 13 12 10 6 6 5 6 7 7 6 5 5 3 2 1
14 11 10 4 5 8 5 6 11 10 10 12 14 14 11 15 20 14 9 16 19 12 13 22 26 18 16 20 20 22 21 16 17 17 12 11 10 7 7 6 9 8 6 6 4 3 5 3 2 4 4 11 7 3 6 6 8 19 26 20 19 20 20 18 18 18 18 19 22 21 17 19 17 7 4 5 7 7 7 8 7 6 6 6 5 3 2 2
15 13 14 6 3 8 8 7 10 9 10 14 15 15 16 19 19 15 11 13 16 15 14 21 23 14 10 16 22 24 21 15 12 9 6 5 3 4 4 5 10 11 9 8 5 3 5 4 2 4 4 6 1 4 2 2 5 16 19 16 20 23 22 19 17 20 20 16 15 15 16 17 11 2 5 6 6 7 8 7 7 6 6 6 5 4 4 3
Wind_Direction
21 22 21 20 19 19 20 20 20 19 18 17 17 17 17 17 17 17 14 13 10 9 18 32 107 153 146 137 120 107 89 68 49 47 54 15 349 344 341 340 345 351 354 357 3 4 358 353 316 329 331 262 25 201 345 18 58 50 73 75 322 212 162 215 135 134 125 116 98 41 91 117 146 344 100 85 82 93 84 77 77 73 71 77 78 71 63 60
18 20 19 18 17 17 18 18 19 18 18 17 16 16 16 16 15 17 15 14 13 12 16 24 71 167 168 152 143 120 99 58 33 40 32 356 350 347 347 356 356 356 1 5 2 358 351 340 326 343 13 303 312 7 1 344 61 69 92 70 249 210 201 181 104 73 101 132 144 39 106 113 155 177 98 93 103 104 95 87 85 81 69 68 69 67 63 59
15 17 17 17 15 15 16 16 17 17 16 16 15 15 15 15 15 16 16 15 15 15 13 14 35 170 181 168 157 121 72 35 29 20 357 349 352 354 2 10 8 6 4 358 347 337 317 300 311 327 5 329 292 68 32 343 34 84 91 38 253 226 285 27 90 108 130 133 105 358 83 96 293 158 97 106 103 88 102 121 107 98 93 80 65 65 63 58
12 13 14 15 14 13 13 14 15 15 15 14 13 12 14 14 14 14 14 15 15 15 13 10 19 147 189 185 166 81 16 47 32 324 340 351 359 6 13 18 19 18 7 1 349 336 319 293 296 303 41 329 310 55 50 301 27 52 109 188 245 283 2 357 90 120 112 101 91 355 64 74 346 30 106 124 93 60 99 134 131 126 120 106 85 70 67 62
9 9 11 12 12 11 11 11 12 14 13 12 10 9 10 11 10 10 11 12 14 14 12 10 17 35 193 201 201 292 19 49 337 328 347 358 11 13 19 24 27 25 16 14 6 4 1 320 304 8 50 336 335 31 341 269 76 27 250 209 240 42 29 298 88 95 76 66 56 54 70 97 18 33 73 114 107 137 133 122 125 124 124 118 109 90 75 68
5 5 8 8 9 8 8 9 9 11 11 9 8 6 6 6 6 6 7 9 13 13 9 10 11 20 56 192 210 260 52 115 316 347 353 2 14 15 26 27 30 30 22 18 14 19 18 5 23 31 16 348 331 23 250 295 64 2 287 265 295 29 332 312 67 65 74 71 43 70 128 107 93 56 44 86 106 137 130 125 119 114 118 113 104 93 76 66
360 1 4 4 6 6 6 7 7 8 8 8 6 4 3 2 2 1 2 5 10 11 8 8 9 47 69 87 199 23 81 168 326 351 356 5 5 15 29 24 28 33 26 23 19 19 19 22 27 17 11 6 346 358 250 329 65 130 276 291 313 343 331 353 64 58 85 90 317 65 96 126 116 104 71 89 112 124 121 119 114 113 111 103 95 90 84 73
356 357 359 1 2 2 3 3 5 5 5 6 4 3 1 359 358 356 357 360 3 8 5 2 358 144 87 40 76 23 37 238 334 356 1 5 2 14 23 22 27 30 37 36 27 18 23 36 13 353 34 26 16 345 331 4 25 151 243 279 313 321 304 5 69 62 82 85 346 50 62 175 135 116 103 120 133 127 120 113 110 111 102 98 98 97 92 77
354 353 355 358 358 358 360 1 2 2 3 4 3 2 359 356 354 351 352 354 357 359 358 353 341 275 268 354 82 21 306 206 6 1 5 12 7 5 10 27 26 26 44 38 28 31 47 52 347 5 52 258 344 336 12 40 317 209 240 302 336 305 295 356 92 105 135 62 34 47 30 123 129 105 94 152 148 134 122 113 109 107 101 104 105 105 103 90
352 351 351 353 355 355 356 358 359 359 0 0 0 1 357 353 349 346 345 348 351 349 348 342 334 6 327 29 78 29 269 73 20 8 18 25 9 348 9 30 23 27 48 36 30 40 65 94 295 229 167 248 328 301 238 105 235 236 359 325 319 288 293 328 173 216 172 119 67 90 38 154 153 108 121 192 162 140 123 117 114 107 109 113 108 111 113 109
351 350 349 349 351 352 353 354 355 355 357 357 357 357 355 349 344 341 339 344 348 342 344 337 308 348 5 73 94 207 221 67 30 25 26 30 20 2 18 26 19 25 42 50 47 42 55 47 321 295 182 315 321 292 255 206 243 2 16 339 310 287 292 283 205 252 200 182 104 131 138 189 199 144 159 176 164 145 129 125 123 116 121 121 119 122 119 112
348 347 346 347 348 349 350 350 352 353 352 354 352 352 352 345 338 336 336 342 345 340 342 345 302 293 20 70 121 174 133 69 43 31 26 29 22 14 27 24 15 17 25 63 68 27 25 11 24 64 256 324 315 311 242 292 315 40 49 350 311 334 316 269 228 220 177 223 120 118 21 211 212 209 159 159 154 144 129 129 131 129 136 131 129 124 103 92
343 345 343 344 345 347 348 347 349 349 349 351 348 347 347 341 335 332 334 343 347 343 343 348 321 284 62 63 149 129 97 67 48 34 30 27 19 21 24 9 4 9 14 52 70 14 7 354 74 151 269 84 272 298 105 323 80 39 72 137 328 14 321 259 220 170 166 229 49 96 322 264 215 166 152 155 150 139 130 136 138 136 142 140 136 123 101 84
338 340 340 341 343 344 345 345 346 346 346 347 345 343 342 338 331 326 332 346 350 347 343 357 1 83 72 126 159 119 100 84 41 21 27 26 24 28 3 354 348 355 10 32 32 15 359 7 76 135 280 150 218 319 350 349 55 92 83 107 78 89 284 272 210 156 173 244 82 102 261 266 199 158 160 162 152 142 140 144 142 142 143 143 141 132 129 95
332 335 337 338 340 342 343 343 344 344 343 344 343 341 340 335 325 323 331 351 353 346 336 15 40 87 77 92 165 138 130 151 11 2 16 17 22 20 343 342 332 355 28 33 15 357 17 51 74 71 280 249 91 15 343 336 3 50 135 317 343 162 265 295 243 172 184 249 105 122 261 268 183 171 168 161 151 142 141 151 150 150 148 145 146 137 133 100
327 331 334 334 337 340 340 341 342 342 341 343 342 340 339 330 317 320 320 357 353 310 162 58 125 85 95 22 158 150 150 181 328 351 2 5 13 1 338 339 356 66 56 39 356 331 35 69 87 148 296 329 75 81 22 7 344 351 108 265 290 244 272 297 286 219 183 201 146 175 235 266 189 179 177 162 152 143 144 156 155 154 153 144 141 130 120 111
321 325 329 332 335 337 338 340 340 341 341 342 342 340 338 324 316 314 259 358 354 203 131 49 267 43 114 104 137 175 256 214 316 321 337 353 355 343 335 341 69 70 74 95 344 335 65 59 285 305 20 15 80 89 45 6 319 330 14 284 272 280 278 260 299 286 182 182 230 217 230 260 210 172 181 172 155 149 151 159 156 153 150 141 138 134 137 156
315 319 325 328 330 335 338 338 339 341 341 342 344 339 332 319 319 292 228 344 348 164 101 359 10 34 229 303 166 230 297 288 305 288 321 346 339 330 325 332 34 24 33 46 357 20 53 348 47 32 7 7 30 74 58 279 233 247 268 284 286 289 282 262 273 261 192 201 234 233 245 263 210 171 182 179 162 156 157 158 155 151 147 146 147 153 166 177
310 315 321 324 328 334 336 338 339 342 342 343 346 340 330 332 330 247 327 348 358 152 301 289 60 44 245 284 222 284 309 296 307 254 337 344 326 312 286 111 36 36 43 20 340 348 78 14 32 15 334 340 38 106 174 221 201 213 226 214 245 273 278 262 258 239 186 189 240 234 241 253 195 184 194 183 164 155 156 153 153 154 154 152 155 172 179 184
306 312 317 321 326 330 335 338 337 342 347 347 350 351 349 0 356 316 346 349 292 227 300 212 169 235 271 310 262 314 305 293 337 179 342 335 318 316 162 84 38 43 41 340 310 305 83 57 345 271 233 211 209 204 204 218 214 227 246 245 246 256 273 270 270 260 165 163 249 232 233 250 209 195 201 183 159 159 162 161 165 163 158 160 163 180 186 192
303 309 314 319 322 328 334 336 337 345 351 354 5 21 63 36 23 312 329 315 267 271 289 262 167 237 262 255 284 344 351 28 336 246 340 332 318 18 4 56 44 16 317 297 302 332 59 35 271 222 203 202 217 236 225 230 254 258 249 268 274 256 259 270 265 240 143 173 264 252 246 255 234 212 201 173 167 179 176 169 172 165 161 168 166 183 199 196
298 304 312 317 319 326 331 335 337 343 351 4 30 70 121 118 121 215 281 304 288 279 271 333 8 279 275 241 250 40 79 46 319 282 333 346 11 122 310 60 64 326 309 347 6 0 12 293 256 219 195 212 251 240 211 227 245 252 259 281 281 263 264 286 283 185 109 295 270 279 270 256 246 236 204 182 184 188 183 172 168 162 159 171 172 186 198 169
290 301 312 314 318 322 326 334 337 342 359 20 52 86 125 140 159 184 164 296 295 295 135 173 200 256 276 268 225 135 89 74 234 287 337 359 23 130 97 68 39 302 339 29 76 15 317 262 239 200 169 181 291 269 184 231 261 243 247 253 265 270 267 284 304 332 314 265 246 272 277 256 239 243 207 192 186 163 170 167 160 162 161 174 182 178 169 160
286 300 309 312 316 316 319 326 334 352 8 39 63 77 121 158 167 160 147 274 292 295 227 208 196 191 203 205 186 131 110 197 164 261 332 18 93 130 120 111 28 19 260 106 131 181 266 259 192 136 139 155 235 315 165 202 272 258 225 217 244 253 231 239 281 331 321 303 280 284 291 269 215 211 200 185 159 145 161 156 156 174 172 173 173 166 166 165
287 298 308 315 313 310 315 315 339 9 2 44 55 58 107 167 180 151 51 12 306 299 277 236 237 187 190 152 147 149 152 296 159 249 328 35 145 135 102 152 71 18 232 204 87 250 264 267 115 116 96 112 171 267 215 186 240 286 241 217 218 204 235 268 332 359 340 309 297 308 299 284 211 188 191 165 156 170 172 164 166 178 182 174 162 170 179 170
285 295 312 318 309 307 308 288 43 14 348 49 31 36 110 180 191 170 63 53 305 278 154 149 246 171 190 156 148 138 47 317 284 289 9 43 150 130 76 282 56 247 212 69 339 278 260 338 72 117 132 101 225 258 236 181 168 286 252 187 161 141 273 289 330 3 283 264 281 100 228 277 273 174 187 176 177 187 185 179 181 183 187 181 172 177 173 168
284 293 312 321 312 307 290 208 145 352 283 273 8 25 143 183 187 186 60 30 297 239 131 289 315 140 179 185 115 125 151 281 27 25 56 70 324 71 126 274 14 279 203 79 342 269 195 45 49 92 115 170 254 263 232 160 141 252 239 134 117 135 274 268 246 240 241 277 294 243 204 267 279 228 188 174 180 198 197 193 193 192 192 182 177 174 160 171
285 288 306 326 313 296 231 197 212 196 174 286 350 47 174 177 176 148 74 18 282 175 110 275 135 129 167 87 71 118 194 194 113 305 290 135 309 49 65 224 174 222 204 110 262 269 203 174 208 152 120 229 235 231 194 143 146 248 213 162 204 229 242 246 234 249 271 13 285 239 173 245 272 245 167 166 185 209 207 200 195 190 190 177 172 172 161 168
283 283 301 330 287 191 177 198 210 198 172 341 38 135 161 165 165 85 75 289 269 73 52 71 117 209 83 67 344 156 202 213 149 260 325 48 281 54 72 197 161 207 250 151 212 259 259 200 191 154 162 232 226 217 177 148 204 243 197 225 273 250 244 230 226 259 16 2 261 232 165 217 266 214 142 165 206 220 210 197 191 190 185 173 167 168 162 163
274 279 294 334 285 201 228 227 194 173 159 124 128 148 147 143 101 62 51 247 260 308 135 94 172 202 102 84 309 187 171 230 148 45 8 49 332 15 101 144 100 142 293 311 237 262 296 239 168 146 190 203 178 192 179 163 204 217 51 344 326 291 268 142 200 44 55 263 258 221 182 202 270 237 161 180 217 212 194 177 184 190 177 170 167 160 160 167
262 273 277 326 307 216 242 239 180 152 131 137 145 143 125 51 75 100 215 243 259 282 113 131 256 111 112 139 243 188 172 275 186 110 332 22 6 9 43 11 33 52 343 336 302 302 332 303 241 217 196 132 112 135 315 21 51 70 64 28 344 311 353 39 7 55 105 256 262 228 198 198 240 244 187 213 238 189 176 175 180 183 170 165 165 160 166 171
255 269 267 297 306 236 230 231 187 156 144 150 146 108 86 44 29 173 232 284 300 230 161 176 224 145 123 99 259 219 211 300 236 147 175 137 77 296 185 205 190 9 322 282 313 322 304 248 248 328 285 133 114 68 332 359 44 80 81 63 4 320 349 355 314 149 217 249 249 181 166 213 241 249 207 223 238 191 177 176 173 168 160 164 167 164 168 165
248 266 266 270 284 266 243 235 221 177 160 157 140 56 82 117 229 216 228 271 247 211 140 124 128 124 122 84 280 233 156 260 233 155 170 118 3 281 259 212 161 151 266 246 346 319 301 297 288 331 292 170 142 153 240 276 127 138 134 124 156 303 327 299 276 268 273 270 249 133 47 275 263 278 231 213 212 180 161 154 155 152 152 163 166 160 164 168
251 259 268 268 266 268 253 238 230 182 167 152 100 70 107 179 236 228 226 238 236 290 77 110 93 74 99 166 235 204 132 268 220 117 45 64 47 274 277 258 174 152 206 341 329 222 242 300 251 185 236 171 169 187 175 149 154 188 166 139 163 170 235 272 269 270 288 290 257 233 300 241 224 299 282 193 136 116 122 128 133 141 151 156 153 153 165 181
256 256 263 268 263 261 249 236 219 179 167 134 92 125 171 203 235 228 227 233 222 87 18 62 90 81 286 275 263 216 193 272 121 96 165 167 177 204 205 228 198 152 128 135 266 195 199 257 244 219 229 152 183 220 147 115 120 238 134 111 191 186 193 252 232 201 291 309 273 216 226 227 193 334 348 96 113 110 119 130 133 147 156 146 150 163 175 194
253 258 258 260 259 254 242 231 204 183 165 122 134 197 206 209 197 196 216 204 167 145 120 5 87 136 255 279 277 258 178 256 105 76 249 211 203 210 202 213 191 171 162 164 225 222 244 269 259 21 327 177 187 220 158 126 154 202 133 178 227 186 152 242 275 129 56 302 273 215 246 271 351 331 335 114 126 132 143 149 146 160 160 147 162 178 183 195
241 251 250 251 252 245 236 216 187 182 154 122 186 213 211 210 196 199 212 161 154 136 120 188 208 187 219 240 241 230 159 286 220 130 242 240 233 204 198 229 190 183 188 173 210 221 224 273 239 150 228 239 202 142 325 349 123 146 189 225 224 122 106 130 274 330 58 264 265 200 243 260 204 216 230 158 163 174 181 172 159 167 162 159 178 182 181 178
230 241 250 246 242 235 222 191 179 174 130 144 217 227 209 210 212 207 184 136 136 120 128 203 220 187 191 208 236 207 170 195 193 171 212 237 245 189 168 198 197 194 197 161 189 249 124 277 270 156 195 263 30 52 324 325 92 139 207 243 106 172 253 148 156 255 233 264 270 230 247 249 203 194 199 190 195 193 189 181 173 178 172 170 181 180 181 164
216 235 261 239 232 229 212 184 175 157 133 187 216 227 209 214 224 217 184 150 148 150 175 216 218 206 198 189 195 187 180 188 176 186 214 205 231 205 173 181 172 188 175 142 171 229 113 225 276 315 227 274 33 80 214 238 55 79 32 327 33 198 221 181 163 186 205 264 275 287 293 263 199 188 183 193 200 188 183 186 183 185 180 175 177 178 185 195
188 233 265 200 207 210 190 172 171 171 199 206 208 220 223 224 226 223 214 197 172 172 198 209 202 212 222 201 197 192 188 191 175 183 212 199 220 230 203 178 155 156 52 81 143 182 101 200 247 314 337 258 194 198 193 189 177 141 160 232 229 205 215 263 231 153 192 251 265 287 285 258 188 184 179 187 196 183 177 181 183 185 180 176 176 176 183 193
163 239 243 178 181 175 159 159 192 191 208 220 212 219 229 236 229 226 225 217 216 218 185 178 190 197 202 214 220 194 178 198 190 192 225 216 211 235 219 176 154 153 100 64 163 194 161 194 224 254 260 223 227 224 199 190 183 176 187 195 200 202 185 265 261 187 194 240 219 248 270 263 194 174 174 173 179 175 173 175 179 181 175 176 181 174 175 185
180 219 185 171 173 161 153 180 210 184 217 218 218 232 228 238 238 228 229 217 219 229 201 190 198 195 202 209 203 183 180 208 202 194 228 224 204 216 217 171 150 148 138 133 212 211 154 143 228 250 247 235 240 244 178 173 165 182 211 193 184 190 181 214 244 224 200 242 194 234 266 273 160 147 156 159 164 166 174 176 171 177 178 174 177 171 168 179
197 194 148 164 173 164 163 224 203 198 236 214 228 250 231 239 245 221 214 209 211 211 209 215 194 201 223 206 180 195 196 213 215 203 222 228 207 221 215 161 146 137 136 153 206 206 137 131 224 264 282 264 248 20 36 58 83 225 238 188 183 211 208 216 235 202 196 235 205 231 260 265 252 148 148 149 160 165 177 179 164 170 181 169 164 168 173 191
186 186 137 169 181 177 182 216 195 206 229 213 228 241 232 242 239 219 207 205 201 184 200 220 201 209 228 190 181 209 196 211 238 218 210 210 205 261 241 173 164 157 167 185 177 179 192 179 181 277 308 294 283 355 351 336 155 227 232 188 205 222 217 249 281 146 245 243 222 231 257 252 227 114 146 142 156 173 183 180 162 161 169 165 163 171 183 204
150 199 178 174 187 194 211 212 186 208 215 211 228 231 229 238 223 211 212 211 201 175 194 222 202 195 206 170 190 217 203 215 241 228 192 203 226 316 323 200 189 182 189 191 168 173 188 187 170 203 268 275 275 283 283 220 185 219 221 199 211 212 197 211 236 202 237 247 228 225 249 254 224 147 206 181 177 189 187 163 155 158 164 167 170 180 192 209
169 205 185 161 184 210 244 231 177 210 197 196 226 229 223 231 225 201 207 214 209 190 202 220 182 180 193 182 198 227 225 222 229 228 175 192 229 283 315 311 290 174 168 122 138 144 135 228 210 213 230 244 258 266 234 125 201 243 227 208 208 205 204 210 219 221 227 254 253 240 241 258 259 230 216 215 196 201 196 166 164 169 170 172 174 181 190 202
202 209 181 159 168 205 224 226 212 222 202 192 209 222 211 218 227 212 204 206 196 197 216 218 182 187 193 183 198 232 234 224 221 233 225 204 222 300 306 53 70 149 148 127 155 119 109 247 228 219 232 242 254 263 205 144 242 258 252 230 213 207 212 214 220 230 218 128 261 252 233 247 256 242 222 226 219 220 208 177 178 178 171 174 170 165 159 4
203 210 178 172 178 195 200 204 204 215 225 215 219 245 224 211 210 205 202 203 196 199 210 221 210 204 195 190 201 232 235 216 210 230 230 222 219 225 353 301 193 208 155 130 266 125 140 247 236 220 240 250 256 266 261 245 256 260 256 243 226 219 219 221 228 234 225 218 251 262 258 251 254 245 235 233 220 223 215 180 179 171 155 156 137 102 40 352
198 252 199 187 200 200 195 197 194 208 223 221 222 238 233 219 213 205 180 178 212 211 204 218 224 209 200 203 206 225 228 196 203 230 221 218 219 186 167 254 219 202 166 154 221 141 153 251 243 223 249 259 258 258 258 256 260 262 257 241 232 234 229 229 235 237 234 238 252 265 268 265 262 251 251 250 208 197 192 163 163 152 146 146 121 104 200 276
196 207 185 185 213 208 188 188 187 205 219 216 224 233 227 220 221 213 175 184 210 210 200 218 228 208 205 213 212 224 227 197 209 228 199 194 220 192 192 217 160 148 185 165 176 219 208 239 223 175 252 267 262 243 237 244 251 261 261 241 231 242 243 238 239 238 237 243 251 257 262 266 267 258 257 256 212 175 157 162 168 154 149 140 124 150 224 238
201 195 182 166 211 198 175 179 186 201 216 212 222 226 218 223 220 208 205 214 216 206 186 211 226 217 209 219 220 229 230 211 218 228 196 187 207 194 203 200 149 153 187 175 170 207 210 224 75 103 234 265 263 205 231 256 266 267 265 248 229 236 241 237 234 232 229 234 248 255 255 260 266 260 228 216 191 177 176 176 165 151 151 140 142 188 199 87
199 196 190 186 217 196 189 192 183 195 220 215 212 213 217 224 215 199 216 232 227 222 205 207 219 220 213 224 227 230 230 219 221 230 197 182 191 183 212 194 163 162 166 172 186 182 178 196 151 136 218 270 328 112 131 37 304 272 263 235 217 225 235 239 242 239 229 224 239 246 242 252 267 229 171 192 181 179 190 179 158 157 162 155 162 171 139 102
Height
832 830 829 828 826 825 823 822 820 819 817 816 814 813 811 810 808 807 806 804 802 800 800 800 799 800 800 799 799 799 799 799 799 798 800 803 804 802 801 800 798 797 795 794 793 792 791 790 790 788 789 789 789 790 789 789 789 793 799 806 808 807 806 802 801 801 801 804 803 801 800 801 803 801 801 805 811 818 821 823 825 826 827 829 830 832 830 830
832 831 829 828 827 825 824 822 821 819 818 816 815 813 811 810 809 808 806 805 803 801 800 800 800 800 800 800 800 800 800 799 799 800 802 804 803 801 801 799 798 797 795 794 793 793 793 792 790 789 791 792 791 791 792 791 791 796 803 808 807 803 801 798 799 799 800 804 803 800 801 800 802 801 799 808 819 820 824 829 828 829 830 830 830 830 830 830
832 831 830 828 827 825 824 822 821 820 818 817 815 814 812 811 809 808 807 805 803 802 801 800 800 800 800 800 800 800 800 800 802 803 804 804 803 801 800 799 798 797 795 795 794 794 794 793 791 792 793 794 793 793 795 793 794 798 803 809 805 799 798 797 799 800 799 800 800 801 801 801 801 799 801 811 819 821 825 829 830 831 832 831 831 830 830 829
832 831 830 829 827 826 824 823 822 820 818 817 816 814 813 811 810 809 807 806 804 803 801 800 800 800 800 800 800 801 800 802 806 806 805 804 803 802 801 800 798 797 796 795 794 793 793 792 792 792 794 797 794 794 797 796 797 799 802 806 802 797 799 798 799 799 798 797 799 802 801 803 801 799 804 810 816 824 826 824 826 829 830 831 831 831 830 830
833 831 830 829 828 826 825 823 822 821 819 817 816 815 813 812 810 809 807 806 804 803 802 801 800 800 800 800 801 800 801 809 810 806 805 804 803 802 801 800 798 797 796 795 794 792 791 791 791 792 796 799 798 797 799 796 797 800 800 801 799 797 799 798 798 798 796 797 800 803 802 803 802 803 808 808 814 825 825 823 824 826 828 829 830 831 830 830
833 832 831 829 828 827 825 824 822 821 819 818 817 815 813 812 811 809 808 806 805 803 802 801 801 800 800 800 802 801 804 813 809 804 805 803 803 802 800 800 799 798 796 795 793 792 793 793 793 797 800 800 800 801 800 797 797 802 802 798 798 797 798 798 798 798 797 799 802 803 802 803 805 811 813 811 817 822 822 823 824 825 827 828 829 829 830 829
833 832 831 829 828 827 825 824 823 821 820 818 817 815 814 812 810 809 807 806 805 804 802 801 801 801 801 801 802 802 806 810 806 805 805 803 803 802 800 800 799 798 796 795 794 794 796 796 797 800 802 802 802 802 800 798 798 803 804 799 798 797 797 797 798 798 798 800 802 801 801 803 807 813 816 818 821 821 821 823 823 825 826 826 828 829 830 829
833 832 831 830 828 827 826 824 823 821 820 818 817 815 814 812 810 809 807 806 805 803 802 801 801 801 801 802 803 806 808 807 805 805 804 803 803 801 801 800 799 798 797 797 797 797 797 800 802 801 803 804 803 802 800 800 801 803 803 800 799 797 796 796 797 798 798 800 801 801 802 804 806 811 818 821 822 821 822 823 823 825 826 827 829 829 830 829
833 832 831 830 828 827 826 824 823 821 819 818 817 815 814 812 810 809 807 806 804 803 802 801 801 800 801 801 803 809 809 806 805 804 803 803 802 801 801 799 799 799 798 799 798 798 798 802 804 801 804 804 802 802 800 803 805 802 801 800 800 798 797 796 797 798 799 800 801 801 804 808 806 809 820 823 821 822 822 823 824 824 826 828 829 830 830 830
833 832 831 829 828 827 826 824 823 821 820 818 816 815 813 811 810 808 807 805 804 803 801 801 800 800 801 800 804 811 808 804 805 804 803 802 802 802 800 799 800 799 799 800 799 799 800 802 803 802 804 803 803 802 800 804 804 800 800 800 800 799 798 797 798 797 799 800 801 802 806 809 806 806 819 824 820 821 821 823 824 825 828 829 830 831 831 831
832 831 830 829 828 827 825 824 823 821 819 818 816 815 813 811 809 807 806 805 804 802 800 800 799 800 800 800 806 810 805 804 805 803 803 802 801 801 800 800 799 799 800 800 800 801 801 802 801 802 803 803 803 801 799 801 800 800 801 801 800 799 799 798 798 798 799 800 801 802 805 809 807 806 814 819 819 820 820 823 825 826 829 829 830 831 831 831
832 831 830 829 828 826 825 824 822 820 819 817 816 814 812 810 808 807 805 804 803 801 800 799 799 799 799 800 805 806 803 804 804 803 802 801 801 800 800 800 799 799 799 800 801 801 801 801 801 802 803 802 803 802 800 799 799 800 802 805 804 802 802 799 798 798 799 801 799 801 807 809 808 808 811 814 817 818 820 823 826 827 829 830 830 831 831 830
831 830 829 828 827 826 825 823 821 820 818 816 815 813 811 809 807 806 804 803 802 800 799 798 798 798 799 803 804 802 803 803 803 803 802 801 801 800 800 799 799 799 799 799 800 800 801 801 801 802 802 802 803 801 799 798 799 801 803 807 808 809 808 799 797 799 799 801 796 801 812 809 807 810 811 813 815 817 821 823 825 827 828 829 830 830 831 829
831 830 829 828 827 826 824 823 821 820 818 816 814 812 810 808 806 804 803 802 801 800 798 798 798 798 800 803 802 802 803 802 802 802 802 801 800 800 799 799 799 799 799 799 799 800 801 800 801 802 801 802 800 798 799 800 801 803 805 808 813 818 812 798 797 799 801 802 795 803 815 809 808 813 811 812 813 816 820 823 825 827 827 828 829 830 830 828
830 829 828 827 826 825 824 822 821 819 817 815 813 811 809 807 805 803 802 801 800 799 798 798 798 798 802 804 801 802 802 802 802 802 802 801 800 800 799 799 799 799 799 799 799 800 801 800 801 802 801 799 799 802 806 805 804 805 809 813 815 818 813 801 798 799 801 801 797 805 814 810 812 814 810 812 814 815 819 822 824 826 827 827 828 828 828 827
830 829 828 827 826 824 823 822 820 818 816 814 812 810 808 805 803 802 801 800 799 798 797 798 797 798 804 804 801 801 802 801 802 801 801 801 800 799 799 798 798 799 799 799 799 800 801 801 802 803 802 801 803 808 810 810 809 808 812 814 813 815 814 808 801 798 800 801 800 805 809 807 811 813 812 814 814 815 818 821 824 825 826 826 826 826 826 825
829 828 827 826 825 824 823 821 820 818 815 813 811 808 806 804 802 800 800 799 798 797 796 797 796 797 802 803 801 802 801 801 801 801 801 800 800 799 799 798 798 799 798 799 800 800 801 802 803 804 804 805 806 808 814 818 817 814 814 815 813 812 814 812 806 800 800 802 802 804 806 803 806 811 812 813 814 816 818 821 823 824 824 825 825 825 825 825
828 828 827 826 825 824 822 821 819 817 815 813 810 807 804 803 801 799 799 798 796 796 797 796 796 802 805 802 802 802 800 800 800 800 800 800 799 799 799 798 798 798 799 800 800 802 803 802 804 806 807 809 808 809 817 822 819 818 818 817 816 813 812 813 810 802 800 804 804 805 805 803 806 811 811 812 814 815 817 820 821 822 823 824 824 824 823 823
827 827 826 825 824 823 822 821 819 817 815 812 810 807 803 801 800 798 798 798 798 800 802 800 800 806 806 802 801 801 799 799 799 799 799 799 799 799 798 799 799 799 801 803 803 802 803 804 808 810 812 813 812 812 816 816 814 816 818 820 820 818 814 811 808 801 800 806 806 805 805 801 806 811 809 811 813 814 817 818 819 821 821 822 822 822 821 821
826 826 826 825 824 823 822 820 819 817 815 812 809 805 805 807 805 803 802 800 801 802 803 802 802 803 802 800 801 800 799 799 798 799 799 799 799 798 798 799 800 802 804 806 807 803 803 810 814 814 815 815 813 812 812 812 812 813 817 819 819 821 818 810 806 801 801 807 806 804 804 801 804 808 807 809 812 813 815 816 818 819 819 820 820 819 819 820
826 825 825 824 823 822 821 820 819 817 815 813 810 808 813 817 815 814 812 805 801 801 800 800 801 801 800 800 800 799 799 799 799 799 799 799 798 799 800 800 804 807 806 806 808 804 806 814 814 812 813 813 812 812 811 811 812 814 817 819 820 822 818 808 804 802 802 808 805 802 804 801 800 803 804 808 810 810 810 812 815 816 817 817 817 817 818 818
825 824 824 823 822 822 821 820 818 817 816 814 812 814 819 821 820 821 820 812 803 800 801 800 801 801 800 800 800 800 800 801 800 799 799 798 797 800 801 802 808 810 807 806 808 810 814 815 811 809 811 812 812 811 812 813 814 815 818 822 823 821 816 808 804 803 805 809 806 803 804 801 797 795 799 804 804 804 806 808 811 812 814 814 814 816 816 817
824 823 823 823 822 822 820 819 818 817 816 815 815 818 820 820 820 821 822 818 808 800 801 801 801 801 800 800 799 800 800 801 802 800 799 799 798 801 802 804 809 810 809 809 811 817 818 811 808 810 811 812 813 812 814 815 817 817 819 823 821 817 816 812 807 806 807 808 807 805 803 799 796 793 796 801 799 802 806 807 809 810 811 812 812 814 815 816
822 823 823 821 821 821 819 819 818 817 816 816 817 818 819 820 820 821 821 818 809 801 800 800 800 800 799 800 799 799 801 801 801 800 800 799 800 802 802 804 808 809 810 811 812 817 815 808 809 811 812 813 814 815 816 818 820 818 817 820 817 814 815 813 812 811 808 805 803 804 801 791 791 793 795 802 802 803 806 807 809 810 809 811 812 813 814 815
821 822 821 821 821 819 819 819 817 817 817 817 818 818 819 819 819 821 820 818 812 804 801 800 799 799 798 798 799 799 800 800 800 801 800 799 801 802 802 804 806 810 811 810 812 814 811 810 811 811 813 815 816 817 817 818 822 819 814 813 813 813 813 813 816 815 814 811 803 805 806 790 786 792 795 803 806 804 807 807 808 808 808 810 812 812 813 812
821 821 820 820 820 819 819 817 817 818 816 817 818 817 819 818 819 821 819 823 817 802 801 802 800 799 798 798 799 798 801 801 800 801 800 800 801 800 803 804 805 809 810 809 811 812 810 813 813 812 815 816 818 819 816 817 823 822 815 814 815 816 816 815 817 818 817 815 806 807 812 799 788 790 795 803 805 804 807 807 807 807 807 809 810 810 810 810
820 820 820 819 819 818 818 816 817 817 816 818 817 817 818 817 820 819 820 831 820 797 799 803 800 799 797 798 798 799 804 803 800 801 800 801 801 799 804 806 806 808 808 810 814 811 809 813 814 815 817 817 818 818 816 817 821 820 817 819 817 816 817 815 818 821 817 817 813 809 814 810 793 785 790 800 803 804 807 807 806 806 806 807 808 807 808 809
819 819 818 818 818 817 817 816 817 815 816 817 816 818 817 816 820 817 824 838 817 792 796 800 798 798 796 798 798 799 802 800 801 803 801 802 802 800 803 806 808 809 807 813 818 812 808 811 812 814 818 818 816 814 814 816 816 815 818 821 818 816 818 817 820 823 821 825 821 810 815 816 793 779 788 797 800 802 803 803 803 803 804 805 805 806 806 807
819 818 818 818 817 817 816 816 816 815 816 816 816 817 815 817 818 816 831 835 806 789 796 797 798 798 798 800 799 799 800 798 800 802 801 802 801 801 805 806 807 809 808 811 814 810 809 810 811 812 816 814 811 813 815 815 814 815 819 820 819 819 819 820 823 824 827 829 817 806 812 811 787 776 792 802 798 793 793 797 800 800 802 803 803 804 805 806
818 817 817 817 816 816 816 815 815 815 815 815 816 816 815 817 818 827 842 828 799 795 799 796 799 799 799 801 800 801 801 798 799 801 802 803 802 802 804 805 807 809 811 812 812 812 811 813 813 811 812 810 810 815 817 815 815 817 820 819 819 819 818 823 825 826 832 824 807 801 802 803 790 778 787 792 781 776 782 792 797 797 800 801 801 802 804 806
817 817 816 816 816 816 815 814 814 814 815 815 815 815 816 817 823 837 838 811 796 801 799 799 802 799 800 803 802 802 801 798 799 801 802 803 804 803 804 807 808 811 814 812 811 814 813 812 812 810 810 811 812 815 818 819 819 818 821 821 819 815 815 823 826 830 833 814 800 801 800 803 795 776 777 776 764 764 773 782 789 793 798 799 799 800 802 804
816 816 815 815 815 814 814 814 813 814 815 814 815 815 816 826 832 833 819 798 797 802 798 801 802 799 803 805 803 804 804 801 799 801 803 806 807 805 806 808 807 811 816 813 812 814 809 808 812 812 811 811 811 815 819 821 821 820 822 823 822 818 815 818 818 821 821 806 800 804 801 800 785 763 765 766 762 765 767 772 781 788 794 796 797 799 800 803
815 815 815 814 814 813 813 813 813 814 813 813 816 814 819 834 833 821 810 798 797 798 796 799 801 802 804 803 803 805 807 803 800 801 805 809 811 808 808 810 807 809 815 818 819 815 809 809 814 812 808 808 809 810 811 814 820 822 820 818 819 821 821 816 810 807 804 799 801 805 802 794 775 760 761 759 761 768 768 773 782 786 791 792 794 798 799 802
814 814 814 813 813 812 811 812 812 812 813 813 815 817 828 836 824 811 807 799 795 797 798 800 802 804 804 804 803 801 803 804 802 804 807 811 814 811 808 809 809 809 814 820 820 818 815 807 805 805 803 805 807 805 804 807 816 819 816 816 815 815 817 813 805 802 799 797 802 807 800 783 768 766 769 766 770 775 775 779 784 786 790 791 794 798 799 801
812 813 813 812 812 811 810 811 810 811 812 811 815 822 830 829 817 809 805 796 795 798 800 801 803 805 806 806 804 801 802 804 806 808 809 810 812 809 805 804 807 810 815 818 815 817 816 802 801 808 806 807 807 806 807 806 812 817 817 818 815 809 807 806 804 806 810 807 801 798 788 773 769 776 779 778 778 779 780 783 786 788 790 792 795 797 798 800
812 811 812 811 810 809 809 809 809 811 810 811 819 824 820 812 805 802 795 789 791 796 801 804 804 807 809 807 805 804 803 805 809 810 810 812 810 807 803 797 801 805 807 810 808 810 809 801 806 813 808 810 811 808 809 805 806 815 817 813 811 810 806 806 809 813 820 816 795 783 777 769 771 777 781 783 781 781 784 784 786 788 789 792 793 794 796 796
810 810 810 809 808 808 808 808 809 810 809 812 817 816 809 801 794 791 788 787 790 792 797 804 802 801 805 805 803 804 805 807 809 809 810 812 804 800 800 796 798 800 798 802 803 804 807 801 805 810 805 809 816 811 810 810 807 811 812 808 807 812 809 810 819 820 825 820 795 780 778 768 764 771 782 787 783 782 785 784 786 788 788 790 791 792 793 790
809 809 808 806 806 807 807 808 808 809 809 812 814 808 802 796 787 784 785 786 788 789 795 801 799 795 797 798 798 803 806 806 808 809 809 806 797 791 793 794 798 801 799 801 802 805 810 802 804 816 813 809 815 812 807 811 812 809 809 808 807 811 809 813 823 821 820 818 793 776 775 767 759 765 778 784 779 779 783 783 784 785 785 787 788 789 789 789
808 809 806 802 804 805 807 808 808 809 810 811 812 806 796 790 784 780 781 783 785 789 794 794 793 794 794 793 794 800 804 804 807 809 804 800 794 788 787 788 795 803 802 801 801 804 809 804 803 818 822 813 812 812 806 807 814 813 813 811 809 811 809 809 816 813 811 810 793 778 770 758 749 751 760 769 770 772 778 780 780 781 782 784 785 787 788 789
806 808 803 798 800 803 805 808 808 810 808 804 804 800 791 786 782 779 779 780 782 784 788 790 791 792 791 791 791 792 798 801 802 804 801 795 789 785 785 785 790 803 806 803 804 805 808 808 803 812 824 816 805 805 800 796 804 811 813 814 812 811 809 810 810 806 805 804 799 795 775 747 742 746 746 754 761 766 772 774 775 778 780 782 783 785 787 788
805 807 800 796 800 801 804 809 808 807 804 798 796 795 790 783 780 779 777 778 779 778 779 783 786 787 788 789 788 787 793 797 798 799 795 789 787 783 781 781 785 797 804 803 804 804 804 806 803 805 813 807 795 795 796 792 795 799 802 804 805 806 809 813 812 805 804 801 795 795 772 737 738 750 745 748 757 761 766 768 771 776 778 780 781 783 784 785
801 802 797 795 799 799 802 807 804 801 799 794 790 788 785 781 779 778 776 777 779 777 776 779 781 784 784 784 784 784 786 790 792 793 788 783 782 778 776 780 784 788 794 798 802 802 801 805 805 799 795 793 792 795 797 796 795 796 797 795 796 802 803 806 806 799 801 800 791 792 777 743 739 748 746 749 755 757 762 764 767 773 775 777 779 780 782 783
794 795 794 795 796 798 802 804 802 800 795 788 785 783 781 780 778 777 776 777 778 776 776 777 777 779 778 778 782 783 783 783 782 783 782 778 777 777 779 783 785 785 788 795 800 802 801 802 803 798 789 786 795 804 805 803 802 799 798 796 796 793 790 791 793 792 797 794 790 798 785 750 742 750 747 751 756 756 760 762 764 772 774 775 777 778 780 781
789 791 793 795 796 797 797 793 792 794 791 786 785 783 781 778 775 775 776 774 773 774 774 774 773 772 772 774 777 778 782 781 774 772 775 773 775 783 785 784 783 781 782 786 788 791 795 795 798 803 798 785 787 797 800 802 806 801 793 795 794 788 789 792 792 799 799 783 781 795 777 744 745 755 748 751 758 756 759 762 764 768 771 773 776 777 779 780
789 791 791 792 794 794 790 783 781 785 785 786 786 782 779 775 768 768 771 770 768 769 770 768 767 768 770 773 775 775 777 775 770 770 772 771 775 786 789 786 783 780 780 784 784 783 788 789 789 795 798 788 775 771 775 785 799 799 792 792 791 790 793 790 791 800 794 773 772 780 762 740 746 755 749 750 754 752 756 763 764 766 769 772 775 776 777 778
786 786 786 789 792 791 786 782 783 782 779 783 784 776 773 772 764 762 765 766 765 765 765 763 764 767 770 772 775 775 772 770 769 770 771 769 773 786 792 790 788 786 786 788 786 785 790 792 786 782 782 777 764 759 769 779 785 787 788 789 789 789 788 785 789 789 779 774 769 755 747 743 742 747 752 751 751 751 754 761 764 766 769 771 773 775 775 775
779 774 772 777 783 785 783 783 784 781 775 775 772 762 763 766 764 762 761 760 761 761 761 761 762 765 768 770 775 772 766 768 770 769 769 767 773 789 795 792 792 791 789 790 788 788 792 789 783 780 776 765 756 760 774 782 779 777 780 784 785 787 785 784 782 768 766 779 762 731 738 748 735 736 746 746 747 749 750 756 761 764 767 769 771 772 771 771
768 761 757 760 764 769 772 771 773 775 772 769 763 755 754 758 760 759 757 756 757 757 759 760 757 758 760 763 768 765 760 766 771 767 765 764 770 784 792 792 795 793 790 793 791 789 791 782 774 779 779 768 763 769 776 781 782 778 776 780 782 783 780 777 773 761 763 769 744 720 735 739 725 731 738 736 742 744 744 751 755 758 764 766 767 768 767 769
757 755 753 753 751 753 755 756 763 770 768 767 764 753 749 752 754 752 751 754 756 752 752 753 749 751 756 756 758 755 752 760 766 761 760 761 762 771 780 782 789 795 793 792 793 793 790 780 772 776 778 771 770 776 780 785 788 780 774 777 778 774 770 768 766 761 761 757 739 732 739 728 716 726 731 730 738 741 743 750 753 757 763 763 764 766 766 768
743 744 746 750 748 747 750 754 760 764 762 764 759 746 744 749 747 745 746 746 746 745 746 745 741 744 748 746 746 743 739 746 752 747 751 757 758 764 769 765 776 795 797 791 794 793 786 780 777 782 785 775 770 778 785 789 790 781 771 772 774 769 765 763 760 757 759 755 742 742 746 728 711 719 728 730 735 740 745 749 751 756 760 761 762 764 765 767
730 732 736 744 745 744 748 750 753 757 757 754 747 741 743 741 736 739 741 732 727 732 738 737 734 736 740 741 741 737 734 738 740 736 741 748 748 751 754 752 762 783 794 794 790 787 787 786 786 793 792 775 772 786 789 789 796 787 769 766 772 767 757 752 749 746 748 749 745 749 748 726 710 718 728 730 732 737 741 745 750 756 758 759 760 761 763 765
727 730 730 736 738 736 739 743 748 750 741 732 733 735 733 728 727 735 738 728 722 725 727 726 727 734 739 740 735 728 727 732 736 739 743 746 745 745 746 749 752 763 781 790 787 784 786 784 785 794 789 777 785 797 795 797 795 766 739 741 754 754 747 744 741 735 736 741 744 742 729 712 711 722 728 729 732 735 738 743 749 754 755 757 758 759 763 764